| time (UTC) | temp F | wind direction | speed knots | gust knots | rain 1hr in | rain 24hr in | rain mn in | humidity % | barometer mb |
| 20260504033030 | 58 | 212 | 1.7 | 6.1 | 0.00 | 0.00 | 0.00 | 61 | 1008.4 |
| 20260504031530 | 59 | 192 | 2.6 | 4.3 | 0.00 | 0.00 | 0.00 | 59 | 1008.6 |
| 20260504030029 | 59 | 194 | 1.7 | 3.5 | 0.00 | 0.00 | 0.00 | 59 | 1008.6 |
| 20260504024529 | 59 | 198 | 1.7 | 5.2 | 0.00 | 0.00 | 0.00 | 60 | 1008.6 |
| 20260504023027 | 59 | 189 | 2.6 | 4.3 | 0.00 | 0.00 | 0.00 | 59 | 1008.6 |
| 20260504021626 | 60 | 199 | 0.9 | 2.6 | 0.00 | 0.00 | 0.00 | 57 | 1008.6 |
| 20260504020025 | 60 | 183 | 1.7 | 3.5 | 0.00 | 0.00 | 0.00 | 56 | 1008.6 |
| 20260504014528 | 61 | 182 | 0.9 | 2.6 | 0.00 | 0.00 | 0.00 | 54 | 1008.4 |
| 20260504013025 | 62 | 199 | 0.9 | 1.7 | 0.00 | 0.00 | 0.00 | 51 | 1008.4 |
| 20260504011523 | 63 | 213 | 0.9 | 1.7 | 0.00 | 0.00 | 0.00 | 49 | 1008.2 |
| 20260504010023 | 64 | 209 | 0.9 | 4.3 | 0.00 | 0.00 | 0.00 | 49 | 1008.3 |
| 20260504004524 | 65 | 228 | 2.6 | 5.2 | 0.00 | 0.00 | 0.00 | 46 | 1008.2 |
| 20260504003022 | 66 | 267 | 2.6 | 6.1 | 0.00 | 0.00 | 0.00 | 45 | 1008.1 |
| 20260504001521 | 67 | 227 | 3.5 | 10.4 | 0.00 | 0.00 | 0.00 | 44 | 1008.2 |
| 20260504000020 | 67 | 243 | 5.2 | 9.6 | 0.00 | 0.00 | 0.00 | 43 | 1008.2 |
| 20260503234519 | 67 | 245 | 7.8 | 12.2 | 0.00 | 0.00 | 0.00 | 42 | 1008.3 |
| 20260503233023 | 68 | 261 | 8.7 | 18.2 | 0.00 | 0.00 | 0.00 | 41 | 1008.3 |
| 20260503231516 | 68 | 229 | 12.2 | 16.5 | 0.00 | 0.00 | 0.00 | 40 | 1008.4 |
| 20260503230015 | 68 | 226 | 8.7 | 13.9 | 0.00 | 0.00 | 0.00 | 41 | 1008.5 |
| 20260503224514 | 68 | 249 | 7.8 | 15.6 | 0.00 | 0.00 | 0.00 | 41 | 1008.8 |
| 20260503223012 | 68 | 263 | 9.6 | 18.2 | 0.00 | 0.00 | 0.00 | 41 | 1008.7 |
| 20260503221517 | 68 | 234 | 11.3 | 18.2 | 0.00 | 0.00 | 0.00 | 40 | 1008.8 |
| 20260503220009 | 68 | 246 | 11.3 | 21.7 | 0.00 | 0.00 | 0.00 | 41 | 1008.9 |
| 20260503214511 | 68 | 229 | 8.7 | 20.0 | 0.00 | 0.00 | 0.00 | 40 | 1009.1 |
| 20260503213005 | 67 | 196 | 9.6 | 21.7 | 0.00 | 0.00 | 0.00 | 40 | 1009.3 |
| 20260503211504 | 67 | 253 | 12.2 | 24.3 | 0.00 | 0.00 | 0.00 | 40 | 1009.5 |
| 20260503210002 | 66 | 257 | 15.6 | 26.9 | 0.00 | 0.00 | 0.00 | 40 | 1009.8 |
| 20260503204600 | 65 | 207 | 13.0 | 29.5 | 0.00 | 0.00 | 0.00 | 43 | 1009.7 |
| 20260503203058 | 64 | 226 | 9.6 | 26.1 | 0.00 | 0.00 | 0.00 | 46 | 1010.3 |
| 20260503201554 | 64 | 246 | 13.0 | 24.3 | 0.00 | 0.00 | 0.00 | 46 | 1010.7 |
| 20260503200056 | 64 | 248 | 13.0 | 22.6 | 0.00 | 0.00 | 0.00 | 44 | 1011.1 |
| 20260503194558 | 63 | 144 | 11.3 | 20.9 | 0.00 | 0.00 | 0.00 | 42 | 1011.4 |
| 20260503193050 | 63 | 234 | 9.6 | 26.9 | 0.00 | 0.00 | 0.00 | 43 | 1011.7 |
| 20260503191553 | 62 | 173 | 8.7 | 21.7 | 0.00 | 0.00 | 0.00 | 42 | 1011.6 |
| 20260503190045 | 62 | 263 | 10.4 | 22.6 | 0.00 | 0.00 | 0.00 | 42 | 1011.5 |
| 20260503184544 | 61 | 189 | 13.9 | 26.9 | 0.00 | 0.00 | 0.00 | 45 | 1011.7 |
| 20260503183042 | 61 | 178 | 13.0 | 21.7 | 0.00 | 0.00 | 0.00 | 46 | 1012.1 |
| 20260503181542 | 61 | 192 | 11.3 | 25.2 | 0.00 | 0.00 | 0.00 | 47 | 1012.2 |
| 20260503180041 | 60 | 180 | 13.9 | 25.2 | 0.00 | 0.00 | 0.00 | 49 | 1012.4 |
| 20260503174534 | 58 | 254 | 11.3 | 27.8 | 0.00 | 0.00 | 0.00 | 54 | 1013.0 |
| 20260503173032 | 56 | 227 | 7.8 | 25.2 | 0.00 | 0.00 | 0.00 | 57 | 1013.4 |
| 20260503171528 | 55 | 247 | 11.3 | 25.2 | 0.00 | 0.00 | 0.00 | 59 | 1014.0 |
| 20260503120132 | 50 | 211 | 9.6 | 16.5 | 0.00 | 0.00 | 0.00 | 54 | 1016.4 |
| 20260503081542 | 50 | 250 | 6.1 | 12.2 | 0.00 | 0.00 | 0.00 | 48 | 1017.4 |
| 20260503071550 | 48 | 237 | 6.1 | 9.6 | 0.00 | 0.00 | 0.00 | 51 | 1017.6 |
| 20260503054521 | 46 | 250 | 1.7 | 5.2 | 0.00 | 0.00 | 0.00 | 59 | 1018.5 |
| 20260503053020 | 46 | 214 | 1.7 | 4.3 | 0.00 | 0.00 | 0.00 | 58 | 1018.6 |
| 20260503051514 | 46 | 219 | 1.7 | 6.1 | 0.00 | 0.00 | 0.00 | 58 | 1018.7 |
| 20260503050021 | 47 | 229 | 3.5 | 8.7 | 0.00 | 0.00 | 0.00 | 57 | 1018.7 |
| 20260503044509 | 47 | 212 | 3.5 | 7.0 | 0.00 | 0.00 | 0.00 | 57 | 1019.0 |
| 20260503043008 | 47 | 223 | 2.6 | 6.1 | 0.00 | 0.00 | 0.00 | 58 | 1018.9 |
| 20260503041507 | 46 | 234 | 3.5 | 6.1 | 0.00 | 0.00 | 0.00 | 60 | 1019.1 |
| 20260503040006 | 46 | 235 | 3.5 | 6.1 | 0.00 | 0.00 | 0.00 | 63 | 1019.1 |
| 20260503034504 | 44 | 223 | 2.6 | 4.3 | 0.00 | 0.00 | 0.00 | 68 | 1019.3 |